Presure
188 189 194 199 216 213 208 202 219 210 236 226 237 226 253 251 295 311 287 276 269 276 286 299 281 283 280 283 292 293 292 218 225 304 309 312 316 144 273 278 323 342 346 347 341 324 324 189 114 347 217 332 318 312
198 185 199 215 214 204 211 221 219 237 230 231 230 250 294 257 305 296 279 281 272 121 278 305 217 257 254 276 291 300 210 237 266 133 110 103 116 277 288 162 131 300 299 325 326 333 290 312 104 240 289 310 319 343
205 192 205 210 207 198 228 222 238 229 232 244 229 261 295 296 288 281 272 268 276 292 83 298 247 143 261 266 207 265 278 81 325 138 323 118 316 325 96 142 134 305 222 344 130 105 282 153 341 345 244 355 355 359
195 218 203 216 208 225 222 241 238 235 249 260 265 282 295 275 275 282 304 283 298 295 318 296 304 170 93 144 298 232 83 218 292 246 225 92 311 204 175 327 402 95 406 408 281 344 414 434 450 458 70 495 421 284
200 210 217 206 208 216 206 238 255 260 258 255 307 310 295 275 271 271 281 283 299 319 150 97 88 241 94 179 221 252 305 103 427 357 465 354 411 98 408 387 365 176 374 281 396 369 364 379 435 371 90 313 497 547
203 204 223 208 215 204 229 246 248 264 240 300 297 282 282 265 268 294 331 317 284 276 313 327 319 348 350 229 110 130 121 526 117 457 96 398 378 150 89 368 351 347 356 351 380 370 359 380 390 422 465 395 360 285
207 203 210 205 212 238 258 257 248 296 301 294 280 288 261 297 294 302 280 288 273 333 366 272 366 471 258 201 147 206 496 198 78 183 375 369 349 140 184 231 101 331 324 325 334 349 143 338 366 390 263 383 379 416
208 217 223 226 259 250 231 280 314 303 284 288 267 286 312 315 279 285 338 372 359 350 354 448 444 448 455 483 440 467 429 76 387 254 305 208 335 337 159 322 319 323 312 315 106 262 328 319 327 357 413 406 382 423
217 231 228 230 244 238 327 309 277 281 295 291 313 290 281 300 334 331 349 342 343 431 427 427 428 415 380 372 380 376 375 371 354 358 350 340 332 324 332 324 318 317 193 298 262 157 338 95 321 344 388 383 387 440
228 227 246 268 275 306 290 277 294 292 324 297 280 301 332 323 360 348 340 363 408 388 393 384 391 373 404 396 396 392 355 337 331 335 335 330 330 319 312 306 295 306 113 157 116 115 121 101 322 342 143 379 440 421
247 273 271 307 259 276 283 285 300 313 282 305 337 320 322 348 337 351 402 382 370 465 464 471 457 344 342 370 339 362 346 329 348 331 331 314 326 308 326 317 316 214 109 120 109 104 102 118 356 347 388 385 425 397
254 268 308 305 298 291 313 303 285 291 333 324 315 358 339 329 391 381 368 383 462 463 473 485 485 403 351 369 365 350 349 329 312 305 334 316 305 321 322 328 325 314 316 211 208 342 330 332 350 354 377 408 398 379
318 282 266 283 294 294 283 290 317 328 316 305 346 327 410 385 373 446 466 467 464 466 466 473 484 406 366 358 337 338 355 353 334 310 303 305 314 317 302 304 303 306 310 285 308 325 343 354 336 351 372 400 390 380
270 297 299 291 281 290 311 326 317 303 301 334 329 389 376 366 431 468 463 447 448 452 457 462 372 342 320 335 352 331 318 311 303 301 308 319 302 297 296 292 298 304 309 316 332 96 327 348 349 333 379 395 387 364
294 282 280 296 327 312 317 312 295 311 329 363 386 367 351 475 447 441 440 444 446 431 369 350 333 327 343 335 316 311 305 293 307 308 313 298 295 285 289 295 176 84 400 184 92 360 88 93 374 337 378 371 347 351
308 312 317 319 300 304 314 290 312 324 393 375 362 352 448 431 427 431 426 400 361 341 334 323 315 336 318 312 308 301 305 308 308 298 292 280 288 279 290 292 321 377 382 351 83 349 359 365 366 334 362 426 348 331
305 289 289 290 327 320 289 314 357 382 368 357 405 445 427 425 423 388 356 340 331 322 314 318 316 321 309 301 304 313 302 293 291 307 296 289 287 295 286 291 285 339 343 373 358 364 358 351 362 336 354 410 340 328
366 360 356 334 303 294 312 395 378 361 352 366 456 423 421 412 382 343 335 326 313 313 309 320 326 320 300 300 308 292 305 308 301 295 274 274 276 290 277 284 315 312 321 329 368 397 381 375 373 341 360 328 320 243
352 334 314 292 305 338 386 366 358 347 340 456 423 413 403 374 344 328 320 322 310 310 306 306 329 316 296 300 296 286 289 280 283 285 279 284 287 281 284 274 279 296 304 318 350 335 337 357 378 355 325 307 314 304
305 289 307 309 382 377 361 350 350 338 408 437 410 402 389 354 334 319 318 311 309 302 298 296 301 293 294 299 288 285 276 287 273 282 280 273 278 283 286 269 284 275 278 291 305 308 327 321 332 372 336 350 317 304
315 308 396 385 366 356 350 342 343 368 434 432 402 394 374 341 322 314 311 307 302 291 293 290 296 290 309 292 286 275 284 273 275 267 268 278 276 276 282 277 266 274 282 283 281 287 291 302 325 317 291 328 307 304
399 386 369 356 350 345 344 339 357 371 417 420 393 383 365 332 313 307 309 303 296 291 286 291 292 305 289 285 294 282 274 288 272 281 280 267 274 261 270 277 271 273 281 286 265 286 286 289 297 308 329 297 290 287
373 361 349 347 340 339 346 352 371 382 400 415 389 372 362 328 312 302 297 302 293 287 294 311 331 318 305 286 275 276 273 276 271 269 274 266 263 266 269 275 271 267 262 263 265 264 266 267 271 276 281 287 296 306
352 345 342 334 339 345 341 369 370 367 401 403 391 370 360 324 304 298 298 296 287 289 292 333 320 306 294 287 272 273 266 265 276 268 269 263 272 266 264 264 268 272 267 264 263 257 258 260 259 260 263 265 267 271
339 335 341 345 347 343 362 364 365 382 398 387 402 370 355 326 302 307 296 291 285 285 285 325 315 307 286 280 280 277 271 275 250 273 269 275 269 267 264 262 264 260 262 259 259 266 260 258 258 256 253 253 255 266
342 349 349 339 335 361 364 374 390 386 390 387 386 386 355 336 307 304 296 291 283 283 277 283 307 294 280 277 278 269 268 271 281 268 261 262 262 259 267 269 266 262 264 269 261 275 271 262 256 253 260 267 213 260
343 326 334 357 362 370 403 399 392 390 389 391 382 390 360 344 313 300 304 290 285 279 281 273 273 270 272 277 276 271 273 279 277 279 271 281 293 277 277 266 260 257 260 266 266 253 267 262 261 265 268 264 261 259
315 353 345 360 413 410 400 397 389 381 382 392 393 386 392 351 327 304 304 296 290 285 281 280 272 269 265 264 257 275 273 265 256 265 264 265 270 274 276 272 265 270 275 278 263 261 253 252 253 261 266 271 250 272
342 375 410 400 401 405 396 385 379 380 384 390 401 394 399 392 344 321 299 302 296 289 284 281 280 274 274 271 269 264 262 257 258 260 259 261 265 263 258 261 263 256 249 246 261 269 271 267 267 274 277 276 275 275
388 407 394 390 397 401 395 388 387 388 395 406 418 447 475 414 354 337 312 298 302 296 289 286 281 280 277 274 269 270 273 275 276 275 267 260 269 265 266 270 265 264 274 275 275 267 266 267 266 274 274 272 282 284
399 392 391 394 402 385 384 384 389 391 389 392 407 429 461 481 383 344 330 314 301 295 290 290 289 285 284 279 283 282 270 261 263 268 272 292 298 276 274 276 278 273 275 272 276 279 279 280 284 284 288 292 292 292
403 397 400 392 388 385 381 385 384 376 377 373 379 386 397 395 376 348 335 332 327 310 299 294 291 290 287 287 284 279 280 281 281 279 277 276 272 274 274 275 277 278 282 285 284 281 281 285 289 289 291 308 347 337
392 388 399 392 380 384 381 378 369 368 362 361 364 367 375 375 374 360 341 331 334 336 335 329 316 308 305 302 299 297 295 294 293 292 292 292 293 290 291 290 291 308 313 319 327 359 357 355 354 348 336 333 368 351
Wind_Speed
103 105 109 114 124 126 117 109 127 111 131 118 129 110 136 125 101 91 86 83 79 73 69 69 74 76 77 81 82 83 81 67 69 87 86 89 87 41 76 76 94 94 95 96 97 97 82 30 24 83 51 86 74 72
120 95 122 126 125 119 127 133 126 137 131 128 119 142 106 110 97 93 90 85 83 38 75 73 64 82 78 86 85 85 60 72 74 18 16 9 27 82 83 18 20 84 97 89 92 84 76 78 36 55 71 74 75 73
125 114 130 126 130 108 135 135 138 133 134 138 119 122 104 99 96 93 92 92 80 82 8 78 73 17 75 82 64 80 85 25 80 33 82 17 79 81 7 11 14 83 56 79 36 35 60 22 77 78 52 80 76 73
123 130 129 132 127 136 132 139 140 135 139 125 129 114 102 99 97 96 92 97 94 92 86 77 83 36 24 39 91 63 17 60 75 60 53 16 83 31 18 34 38 19 37 41 19 34 45 36 37 40 7 44 59 54
128 138 136 129 128 134 123 143 129 134 135 119 104 104 102 101 98 96 96 100 99 99 41 28 31 72 32 58 60 67 72 29 63 45 51 20 27 13 24 21 35 25 40 37 32 48 48 40 27 38 37 37 40 48
134 128 139 131 136 117 142 144 138 128 123 108 105 104 104 101 101 100 93 98 100 98 99 91 86 81 80 43 31 37 32 25 39 26 19 20 25 19 26 16 28 37 37 42 30 33 22 17 18 27 29 35 32 28
132 129 133 125 124 147 140 133 130 114 108 107 106 103 102 102 102 102 100 101 85 96 86 56 81 46 31 29 35 40 20 18 16 10 17 14 20 23 20 12 36 36 34 29 25 17 12 21 21 25 22 29 30 27
134 138 138 141 144 140 133 123 107 108 108 106 104 102 98 99 102 102 98 91 92 91 89 54 47 43 38 30 18 15 7 18 9 17 13 13 27 22 30 25 27 28 32 30 10 15 15 25 21 26 22 19 25 22
134 140 140 137 142 138 109 109 109 109 105 104 100 101 102 102 94 95 91 91 90 55 55 49 44 36 30 29 20 15 9 9 12 15 19 23 27 26 22 22 24 28 15 24 23 2 32 14 27 21 22 19 24 21
137 137 153 126 124 112 111 111 109 108 99 101 101 102 93 93 87 89 88 76 57 57 53 49 41 28 24 16 8 3 8 16 20 19 17 16 18 18 18 21 26 26 20 8 10 10 11 20 27 17 18 19 15 30
143 121 126 120 112 114 111 111 108 102 105 102 90 92 94 88 88 82 62 61 59 36 33 23 31 29 27 16 20 10 12 20 11 16 11 11 10 16 13 12 18 21 26 26 20 22 19 22 17 17 21 18 18 36
132 125 116 112 110 109 103 105 107 105 94 93 93 87 86 86 64 61 61 53 33 31 30 25 24 26 20 15 10 9 6 10 12 11 11 9 12 16 13 14 18 19 19 20 19 20 21 16 13 14 14 14 30 38
113 114 112 111 108 106 107 106 99 92 92 94 89 87 63 64 60 40 33 31 27 25 22 17 14 12 9 13 12 5 4 4 3 1 6 9 11 6 7 10 14 16 17 18 20 22 17 18 9 15 11 18 36 43
112 109 107 106 107 105 98 90 91 92 94 90 86 62 61 59 40 29 24 20 19 17 14 8 10 5 8 11 10 10 8 4 3 5 6 7 7 4 11 12 16 20 23 23 23 8 16 10 12 7 12 25 39 46
107 107 107 104 91 93 90 90 91 91 88 72 60 58 56 22 21 21 20 17 13 4 12 7 4 4 11 11 11 9 5 2 2 4 6 8 5 8 13 18 16 7 15 9 8 4 9 17 10 10 13 38 42 50
99 98 94 90 94 92 87 89 89 86 57 57 56 54 15 15 19 17 11 11 8 5 5 3 3 10 11 10 8 6 5 8 11 11 7 2 9 6 14 24 34 21 12 11 10 3 1 4 13 12 12 13 43 51
96 96 96 94 85 84 88 87 71 54 54 52 35 9 15 13 10 9 9 8 6 4 2 5 6 11 12 9 7 14 13 9 5 14 15 10 5 15 19 24 24 37 37 26 15 16 6 6 11 14 14 17 51 53
77 77 77 78 84 85 85 52 49 49 48 43 10 14 10 5 9 11 12 12 6 6 5 5 8 14 12 9 15 13 17 16 14 19 10 5 6 18 15 22 30 33 37 36 29 15 7 7 6 11 17 44 50 37
73 76 79 83 82 71 45 48 47 46 45 14 11 11 3 11 17 15 13 14 10 8 7 6 6 14 12 15 18 12 14 9 15 15 11 10 16 12 15 17 21 30 33 37 26 26 27 22 17 11 23 39 52 53
78 81 81 80 50 44 44 44 43 41 24 10 13 9 10 20 23 18 16 14 12 10 9 8 9 11 12 20 21 16 10 14 9 11 12 12 12 12 15 12 22 21 25 30 33 30 30 26 26 28 21 26 55 54
79 80 43 42 43 42 40 40 40 35 15 9 13 12 14 23 23 20 17 16 14 12 11 10 12 11 14 25 22 14 15 9 11 7 5 11 9 11 12 13 11 18 19 20 22 25 24 25 19 14 15 36 46 49
41 39 40 41 41 41 38 36 34 29 14 10 15 14 19 28 24 21 20 17 17 14 12 12 13 18 21 22 22 18 14 19 11 11 12 8 9 9 11 11 13 15 17 18 20 21 21 21 21 21 14 26 22 22
37 37 40 39 39 40 38 34 29 23 14 12 17 16 20 30 28 20 20 22 18 15 12 8 16 22 29 27 20 17 15 17 13 12 13 11 5 8 11 10 12 14 14 14 15 15 16 17 17 15 13 11 7 5
36 38 37 38 39 38 35 32 27 23 15 13 20 20 22 33 28 24 25 24 19 14 10 11 24 32 32 32 23 19 15 13 16 12 11 10 11 8 9 10 9 10 12 11 11 9 8 10 10 9 8 7 5 3
36 37 37 36 35 34 32 30 27 22 16 16 18 25 26 36 33 32 29 26 21 17 13 14 25 34 28 24 24 20 17 17 15 11 11 11 10 9 9 7 7 7 8 10 10 10 10 10 10 11 12 14 15 10
35 34 34 32 33 32 30 28 25 23 19 18 20 28 31 37 39 36 35 31 24 21 17 15 21 25 21 18 19 19 18 16 14 15 13 12 12 12 12 12 11 9 8 9 8 11 8 11 14 16 15 15 13 21
32 30 33 33 32 31 24 22 22 22 21 19 23 25 36 38 44 37 40 34 31 24 24 22 20 18 17 20 20 18 15 14 13 13 10 10 16 21 22 16 15 16 14 15 14 18 15 16 17 18 20 24 26 29
31 32 32 34 24 21 20 19 20 20 20 20 21 27 33 41 46 40 41 39 36 31 27 29 26 25 23 20 19 18 17 16 16 15 15 14 12 12 13 16 17 16 17 18 21 22 23 24 25 26 26 28 28 33
31 32 24 24 20 16 15 15 17 17 18 18 20 22 26 37 43 46 40 41 41 38 33 30 29 26 26 24 23 23 22 22 20 20 20 19 19 20 24 23 22 26 26 25 28 27 28 29 31 31 32 32 33 34
28 22 21 20 15 12 11 12 11 11 14 16 16 16 12 26 43 43 46 40 43 42 39 35 31 30 28 27 25 24 25 26 27 28 28 26 27 28 28 28 30 30 28 29 31 33 33 34 35 35 35 34 36 38
21 19 18 13 8 9 6 5 5 5 6 6 7 5 4 8 38 41 43 45 42 41 38 38 37 33 33 31 32 32 28 26 26 26 27 33 33 31 31 31 31 30 30 31 33 34 35 36 37 37 38 40 40 40
14 12 9 8 7 4 4 3 3 2 1 0 1 3 8 18 32 38 38 39 41 43 39 37 36 36 35 35 35 34 34 35 36 36 35 35 34 34 34 34 34 34 35 36 36 35 35 37 37 37 38 42 29 27
9 7 3 4 4 5 6 6 5 5 4 4 5 7 9 16 25 35 34 32 35 36 38 39 39 37 37 37 38 39 39 40 40 41 41 42 42 41 41 40 40 40 41 41 41 30 28 25 23 22 21 18 7 9
Wind_Direction
312 311 310 313 310 311 314 313 311 310 312 313 315 313 317 315 315 316 310 308 307 307 304 299 300 296 298 294 293 292 292 284 286 286 286 285 285 293 283 276 276 276 276 273 272 272 274 239 201 268 273 266 265 260
307 309 311 308 309 312 313 309 311 311 311 313 313 314 312 313 314 312 309 308 307 308 306 301 298 301 296 295 295 293 291 287 294 280 296 312 295 279 277 358 360 277 273 272 274 273 274 270 252 269 263 263 261 257
305 309 308 308 309 307 307 310 309 310 311 311 313 313 311 312 311 310 309 307 307 306 246 302 305 313 298 296 297 298 295 285 293 287 289 278 283 279 316 277 263 274 282 275 252 300 276 270 268 268 267 262 260 258
308 301 307 305 308 307 309 306 307 309 309 311 310 309 310 309 310 310 309 307 305 306 301 302 300 283 266 302 298 298 258 294 292 289 287 277 284 288 293 280 280 253 278 277 290 279 283 289 281 270 192 253 257 258
305 304 304 305 306 308 306 310 307 307 308 311 311 310 310 309 309 309 310 307 306 302 294 281 286 295 285 295 296 286 293 300 294 296 299 290 267 301 270 270 266 276 272 276 294 280 282 287 290 273 259 268 255 237
303 304 304 304 303 305 306 306 306 305 310 309 309 309 310 309 309 309 301 302 306 307 304 305 304 299 299 284 282 227 267 285 291 299 286 263 276 288 295 255 265 266 272 275 295 296 306 288 290 295 289 266 257 247
301 303 303 303 305 305 304 303 305 306 306 308 308 309 309 308 309 307 308 305 304 303 303 300 305 312 285 301 238 279 303 307 325 316 257 272 267 286 287 278 305 270 279 287 290 291 225 294 299 284 269 248 250 250
300 299 300 300 304 303 308 305 306 305 307 307 308 310 308 307 308 307 306 305 304 305 305 311 313 312 316 323 314 316 291 311 239 269 243 256 257 265 279 252 259 267 275 280 296 280 251 267 281 302 285 257 240 248
296 299 300 302 302 302 306 306 306 306 307 308 309 309 308 307 306 306 305 305 306 306 307 310 312 316 304 301 296 290 264 192 226 219 227 238 253 255 259 260 263 268 237 279 287 235 286 331 271 293 281 254 244 232
298 299 299 305 307 305 305 307 306 307 308 310 310 308 307 308 308 305 305 306 305 304 304 305 307 310 303 294 287 221 222 244 248 246 233 249 261 272 265 253 262 265 236 233 230 269 268 308 264 277 255 262 242 208
299 299 302 304 302 304 305 305 306 308 308 309 309 309 309 309 308 307 307 306 304 302 301 305 290 294 296 275 290 224 241 254 244 267 283 287 309 276 331 318 301 298 241 256 262 275 295 279 261 263 275 259 209 198
295 298 301 302 303 304 304 306 306 307 309 309 309 311 310 309 308 307 306 307 311 309 309 306 293 287 289 266 236 235 232 246 265 274 309 321 317 333 338 325 327 334 322 278 285 303 281 296 263 257 268 222 192 194
300 300 300 301 302 304 304 305 307 308 309 309 312 311 313 310 311 316 317 319 316 312 313 319 314 171 229 235 259 258 141 62 82 229 317 349 343 27 340 335 324 324 318 300 297 294 291 271 264 279 225 206 190 184
297 299 301 302 302 303 305 307 307 308 309 312 311 313 311 312 317 320 328 320 314 317 328 350 156 209 285 248 128 131 144 158 34 344 11 39 93 355 353 326 321 317 316 308 288 306 276 265 239 218 201 192 176 178
299 299 300 300 304 304 305 306 306 309 311 312 312 312 312 327 319 324 327 329 339 46 137 145 177 224 181 150 158 156 122 73 44 48 98 123 35 0 355 342 308 231 12 307 288 163 337 334 216 198 198 179 186 180
298 298 300 302 302 303 304 305 308 310 312 312 311 313 329 318 314 335 18 113 138 154 153 179 240 162 169 158 153 137 113 125 135 127 129 43 73 350 20 9 5 33 45 43 294 116 234 125 183 188 194 175 187 186
297 297 299 300 303 305 305 308 310 312 310 311 314 305 305 321 335 118 146 159 176 158 189 192 184 176 173 173 138 130 130 145 155 112 109 105 68 50 41 23 15 38 41 37 63 57 144 172 179 182 185 177 172 179
301 301 301 302 303 304 306 310 312 310 310 311 308 294 308 322 144 184 177 179 213 204 231 222 195 181 175 155 137 129 122 125 121 112 128 115 57 60 55 43 44 47 44 36 47 63 81 101 132 170 169 169 179 195
300 300 301 301 303 306 308 308 310 309 310 313 271 282 268 168 183 205 206 193 205 202 195 198 169 164 167 152 148 154 138 139 122 116 124 105 81 68 59 59 53 46 50 47 55 66 63 70 79 126 155 178 180 188
299 299 301 302 305 305 307 307 309 308 312 288 260 257 199 183 191 205 200 201 198 192 194 187 163 177 169 164 167 164 186 151 138 126 114 103 90 79 66 67 59 60 56 51 52 57 69 70 63 84 133 163 184 193
300 300 300 301 302 304 306 307 309 316 317 262 251 238 190 191 203 209 204 198 202 207 201 194 184 193 176 170 176 191 178 184 162 168 140 121 111 95 90 88 79 69 63 67 67 60 56 60 66 132 147 172 184 194
297 296 296 298 300 302 305 305 311 315 314 257 239 234 192 195 209 213 202 204 201 210 212 210 208 192 183 190 173 182 191 157 167 165 141 128 128 118 93 82 82 71 64 64 84 61 67 68 66 70 101 201 220 225
292 293 295 298 299 300 302 307 311 311 302 260 233 227 201 198 204 214 211 202 205 217 220 232 178 174 178 186 189 197 188 170 171 178 156 154 158 138 111 92 97 95 96 90 84 85 83 82 77 71 68 70 86 134
290 292 294 296 296 299 300 305 305 304 287 266 231 225 208 199 210 210 204 201 213 210 207 204 171 170 177 186 192 197 187 183 184 189 182 182 166 177 150 136 120 118 120 122 130 141 135 126 129 132 133 138 156 176
290 292 292 295 296 296 299 299 297 294 280 257 239 222 212 200 208 203 203 205 208 201 193 197 184 180 183 190 194 198 199 195 202 200 205 204 200 193 184 185 183 200 185 180 182 173 184 191 192 197 206 211 216 230
290 293 295 295 295 296 295 291 284 281 272 251 239 224 211 202 204 203 204 207 211 199 199 188 184 188 188 186 192 191 197 204 214 217 219 224 225 222 231 229 218 217 236 271 234 269 243 226 227 228 238 235 221 240
294 294 295 297 296 294 285 278 274 271 266 257 239 231 213 207 203 207 203 210 210 211 198 193 192 197 199 198 200 202 202 208 206 209 207 238 243 242 243 228 223 225 237 244 239 227 249 239 245 252 250 246 251 258
294 301 299 298 292 287 281 274 271 270 267 266 252 235 224 210 205 207 205 210 210 216 214 203 201 199 203 207 210 211 210 215 223 226 229 227 213 215 224 232 236 248 254 255 241 243 248 253 256 260 262 267 269 271
302 302 294 291 293 284 279 271 270 273 274 275 270 246 233 219 209 203 210 211 213 217 220 221 218 217 214 214 216 219 220 221 225 230 234 237 240 238 234 234 238 239 247 255 254 255 259 261 265 271 273 274 277 280
300 293 291 293 290 282 274 270 276 284 288 291 293 296 285 215 210 207 207 213 213 217 222 226 231 232 233 232 231 231 236 243 245 244 241 241 246 244 247 249 251 252 258 259 259 259 262 266 270 274 276 279 290 293
297 294 287 279 268 263 264 269 279 288 301 304 303 292 239 205 206 210 210 212 216 221 225 229 232 237 240 242 244 245 243 240 244 247 253 260 257 254 255 256 258 256 259 261 266 269 270 273 278 281 286 290 294 298
293 286 262 248 239 235 226 197 188 179 140 209 189 193 194 199 203 211 215 219 221 223 226 230 233 236 239 241 243 245 246 247 249 251 253 255 256 257 258 260 262 264 266 269 271 273 277 281 284 287 290 291 296 297
293 282 240 218 211 184 170 158 155 151 170 183 185 190 195 204 210 214 222 225 229 233 236 239 241 244 246 248 249 250 251 252 253 255 256 257 259 260 264 267 269 272 274 275 278 286 285 286 288 288 288 289 274 287